FW6247 Weather Reports


Display with metric or nautical units.
time (UTC)temp
F
wind
direction
speed
MPH
gust
MPH
rain 1hr
in
rain 24hr
in
rain mn
in
humidity
%
barometer
mb
20260508213032 66 348 3.0 15.0 0.00 0.00 0.00 41 1020.5
20260508211529 66 331 4.0 11.0 0.00 0.00 0.00 42 1020.3
20260508210029 67 322 4.0 12.0 0.00 0.00 0.00 42 1020.1
20260508204530 67 25 3.0 8.0 0.00 0.00 0.00 41 1020.2
20260508203032 68 326 2.0 9.0 0.00 0.00 0.00 42 1020.3
20260508201530 67 344 1.0 7.0 0.00 0.00 0.00 42 1020.3
20260508200029 67 337 1.0 7.0 0.00 0.00 0.00 43 1020.4
20260508194529 66 347 2.0 8.0 0.00 0.00 0.00 44 1020.4
20260508193031 64 334 3.0 9.0 0.00 0.00 0.00 49 1020.4
20260508191529 62 345 2.0 8.0 0.00 0.00 0.00 50 1020.4
20260508190137 60 1 3.0 9.0 0.00 0.00 0.00 52 1020.4
20260508184530 58 349 2.0 9.0 0.00 0.00 0.00 55 1020.3
20260508183030 58 335 1.0 8.0 0.00 0.00 0.00 55 1020.3
20260508181534 59 315 3.0 11.0 0.00 0.00 0.00 55 1020.3
20260508174529 61 5 2.0 10.0 0.00 0.00 0.00 55 1019.6
20260508173030 61 23 2.0 6.0 0.00 0.00 0.00 55 1019.6
20260508171530 61 24 1.0 6.0 0.00 0.00 0.00 56 1019.5
20260508170036 60 77 1.0 7.0 0.00 0.00 0.00 53 1019.6
20260508164530 61 358 1.0 4.0 0.00 0.00 0.00 54 1019.6
20260508163030 61 353 0.0 5.0 0.00 0.00 0.00 55 1019.8
20260508160029 57 60 1.0 5.0 0.00 0.00 0.00 61 1019.8
20260508154531 54 5 0.0 4.0 0.00 0.00 0.00 69 1019.8
20260508153032 51 61 0.0 2.0 0.00 0.00 0.00 74 1019.6
20260508150145 49 135 0.0 0.0 0.00 0.00 0.00 74 1019.3
20260508144530 48 135 0.0 0.0 0.00 0.00 0.00 74 1019.0
20260508143030 46 135 0.0 0.0 0.00 0.00 0.00 74 1018.9
20260508141607 45 153 0.0 0.0 0.00 0.00 0.00 72 1018.8
20260508140031 44 162 1.0 4.0 0.00 0.00 0.00 69 1018.8
20260508134611 44 205 0.0 4.0 0.00 0.00 0.00 68 1018.6
20260508133043 44 161 1.0 6.0 0.00 0.00 0.00 68 1018.4
20260508131530 43 165 5.0 8.0 0.00 0.00 0.00 67 1018.3
20260508130030 43 178 3.0 6.0 0.00 0.00 0.00 65 1018.2
20260508124531 44 171 2.0 6.0 0.00 0.00 0.00 64 1018.1
20260508121530 43 165 4.0 8.0 0.00 0.00 0.00 64 1018.1
20260508120031 44 190 3.0 7.0 0.00 0.00 0.00 63 1018.1
20260508114531 44 171 5.0 7.0 0.00 0.00 0.00 62 1018.1
20260508113030 44 175 5.0 7.0 0.00 0.00 0.00 61 1018.0
20260508111538 44 168 6.0 10.0 0.00 0.00 0.00 61 1018.0
20260508104533 44 173 5.0 8.0 0.00 0.00 0.00 60 1017.9
20260508103031 44 173 5.0 10.0 0.00 0.00 0.00 60 1017.9
20260508101538 44 162 5.0 8.0 0.00 0.00 0.00 61 1017.9
20260508093036 45 172 4.0 7.0 0.00 0.00 0.00 59 1017.8
20260508084533 46 179 3.0 6.0 0.00 0.00 0.00 57 1017.7
20260508083034 45 161 5.0 7.0 0.00 0.00 0.00 57 1017.7
20260508080106 45 165 4.0 6.0 0.00 0.00 0.00 58 1017.7
20260508071531 46 179 4.0 6.0 0.00 0.00 0.00 56 1017.6
20260508070030 46 168 4.0 6.0 0.00 0.00 0.00 54 1017.6
20260508064532 47 159 4.0 6.0 0.00 0.00 0.00 53 1017.6
20260508063029 48 163 4.0 6.0 0.00 0.00 0.00 53 1017.6
20260508061532 47 163 4.0 6.0 0.00 0.00 0.00 54 1017.6
20260508060031 46 158 4.0 5.0 0.00 0.00 0.00 56 1017.6
20260508054533 47 163 2.0 5.0 0.00 0.00 0.00 54 1017.5
20260508051529 53 110 0.0 2.0 0.00 0.00 0.00 44 1017.5
20260508050030 55 67 0.0 3.0 0.00 0.00 0.00 38 1017.3
20260508044606 56 73 2.0 4.0 0.00 0.00 0.00 38 1017.3
20260508043028 56 74 0.0 3.0 0.00 0.00 0.00 37 1017.2
20260508041530 56 63 0.0 4.0 0.00 0.00 0.00 37 1017.0
20260508040105 57 19 0.0 2.0 0.00 0.00 0.00 36 1016.8
20260508034532 57 55 0.0 2.0 0.00 0.00 0.00 35 1016.6
20260508033030 58 17 0.0 4.0 0.00 0.00 0.00 34 1016.5
20260508030032 62 341 0.0 7.0 0.00 0.00 0.00 31 1016.3
20260508024531 64 350 2.0 7.0 0.00 0.00 0.00 30 1016.3
20260508023029 66 1 1.0 6.0 0.00 0.00 0.00 29 1016.2
20260508021529 68 351 0.0 5.0 0.00 0.00 0.00 28 1016.2
20260508020104 68 344 0.0 6.0 0.00 0.00 0.00 28 1016.3
20260508014531 67 343 0.0 6.0 0.00 0.00 0.00 28 1016.3
20260508013031 69 337 2.0 9.0 0.00 0.00 0.00 27 1016.3
20260508011606 71 319 3.0 13.0 0.00 0.00 0.00 27 1016.3
20260508010030 72 305 4.0 12.0 0.00 0.00 0.00 27 1016.3
20260508004528 72 319 3.0 13.0 0.00 0.00 0.00 28 1016.4
20260508001530 72 310 5.0 18.0 0.00 0.00 0.00 30 1016.3
20260508000033 72 331 3.0 12.0 0.00 0.00 0.00 30 1016.3
20260507234530 71 322 3.0 11.0 0.00 0.00 0.00 31 1016.3
20260507233105 72 325 3.0 12.0 0.00 0.00 0.00 31 1016.4
20260507231532 72 317 4.0 14.0 0.00 0.00 0.00 31 1016.4
20260507230104 72 312 5.0 14.0 0.00 0.00 0.00 33 1016.4
20260507224529 73 313 5.0 14.0 0.00 0.00 0.00 33 1016.6
20260507220033 72 325 3.0 11.0 0.00 0.00 0.00 36 1017.2
20260507214530 71 322 3.0 10.0 0.00 0.00 0.00 37 1017.3